Jefferson, NC

9:36 PM EDT on September 22, 2019 (GMT -0400)
Ashe County

Weather History for KGEV - May, 2019

Change the Weather History Date:

Saturday, May 18, 2019

  Actual Average Record
Temperature  
Mean Temperature 68 °F -  
Max Temperature 77 °F 72 °F 83 °F (1987)
Min Temperature 58 °F 46 °F 27 °F (1973)
Cooling Degree Days 2    
Growing Degree Days 18 (Base 50)    
Moisture  
Dew Point 59 °F    
Average Humidity 74    
Maximum Humidity 98    
Minimum Humidity 45    
Precipitation  
Precipitation 0.00 in - - ()
Sea Level Pressure  
Sea Level Pressure 30.12 in    
Wind  
Wind Speed 5 mph (West)    
Max Wind Speed 15 mph    
Max Gust Speed 22 mph    
Visibility 10 miles    
Events Rain , Thunderstorm    
Averages and records for this station are not official NWS values.
T = Trace of Precipitation, MM = Missing Value Source: NWS Daily Summary

Daily Weather History Graph

Daily Weather History Graph

Search for Another Location

Airport or City:

Astronomy

May. 18, 2019 Rise Set
Actual Time 6:16 AM EDT 8:27 PM EDT
Civil Twilight 5:47 AM EDT 8:56 PM EDT
Nautical Twilight 5:12 AM EDT 9:32 PM EDT
Astronomical Twilight 4:34 AM EDT 10:10 PM EDT
Moon 8:23 PM EDT (5/18) 6:19 AM EDT (5/18)
Length of Visible Light 15h 08m
Length of Day
14h 11m
Full, 100% of the Moon is Illuminated
May 18
Full
May 18
Full
May 26
Last Quarter
Jun 3
New
Jun 10
First Quarter

Hourly Weather History & Observations

Time (EDT) Temp. Dew Point Humidity Pressure Visibility Wind Dir Wind Speed Gust Speed Precip Events Conditions
12:05 AM 68.4 °F 61.3 °F 78% 30.10 in 10.0 mi NW 10.4 mph 21.9 mph N/A   Scattered Clouds
12:25 AM 68.4 °F 61.3 °F 78% 30.09 in 10.0 mi WNW 15.0 mph 18.4 mph N/A   Scattered Clouds
12:45 AM 68.2 °F 61.2 °F 78% 30.09 in 10.0 mi WNW 13.8 mph 18.4 mph N/A   Clear
1:05 AM 68.2 °F 61.2 °F 78% 30.10 in 10.0 mi WNW 8.1 mph 18.4 mph N/A   Clear
1:25 AM 68.2 °F 61.0 °F 78% 30.10 in 10.0 mi WNW 4.6 mph 10.4 mph N/A   Clear
1:45 AM 66.7 °F 60.8 °F 81% 30.10 in 10.0 mi West 4.6 mph - N/A   Clear
2:05 AM 64.6 °F 60.6 °F 87% 30.10 in 10.0 mi North 4.6 mph - N/A   Clear
2:25 AM 62.4 °F 60.3 °F 93% 30.10 in 10.0 mi Calm Calm - N/A   Clear
2:45 AM 63.0 °F 60.6 °F 92% 30.09 in 10.0 mi Calm Calm - N/A   Clear
3:05 AM 63.1 °F 60.4 °F 91% 30.09 in 10.0 mi Calm Calm - N/A   Clear
3:25 AM 62.4 °F 60.3 °F 93% 30.09 in 10.0 mi WSW 3.5 mph - N/A   Clear
3:45 AM 63.5 °F 60.3 °F 89% 30.09 in 10.0 mi Calm Calm - N/A   Clear
4:05 AM 64.4 °F 59.9 °F 85% 30.09 in 10.0 mi WNW 8.1 mph - N/A   Clear
4:25 AM 63.3 °F 59.4 °F 87% 30.09 in 10.0 mi WSW 3.5 mph - N/A   Clear
4:45 AM 62.8 °F 59.2 °F 88% 30.09 in 10.0 mi SW 3.5 mph - N/A   Clear
5:05 AM 58.8 °F 57.7 °F 96% 30.10 in 4.0 mi Calm Calm - N/A   Clear
5:25 AM 58.3 °F 57.6 °F 97% 30.10 in 10.0 mi Calm Calm - N/A   Clear
5:45 AM 58.8 °F 57.9 °F 97% 30.10 in 10.0 mi Calm Calm - N/A   Clear
6:05 AM 58.5 °F 57.9 °F 98% 30.10 in 7.0 mi Calm Calm - N/A   Clear
6:25 AM 59.9 °F 57.9 °F 93% 30.12 in 10.0 mi NW 4.6 mph - N/A   Clear
6:45 AM 61.9 °F 58.5 °F 89% 30.12 in 10.0 mi West 10.4 mph - N/A   Scattered Clouds
7:05 AM 58.8 °F 56.7 °F 93% 30.13 in 3.0 mi West 5.8 mph - N/A   Scattered Clouds
7:25 AM 65.3 °F 58.6 °F 79% 30.13 in 10.0 mi West 8.1 mph - N/A   Scattered Clouds
7:45 AM 63.7 °F 56.7 °F 78% 30.14 in 10.0 mi WSW 3.5 mph - N/A   Clear
8:05 AM 62.1 °F 58.5 °F 88% 30.14 in 10.0 mi Calm Calm - N/A   Clear
8:25 AM 65.8 °F 60.3 °F 82% 30.14 in 10.0 mi Calm Calm - N/A   Clear
8:45 AM 65.8 °F 58.5 °F 77% 30.15 in 10.0 mi Calm Calm - N/A   Clear
9:05 AM 65.7 °F 60.8 °F 84% 30.16 in 10.0 mi Calm Calm - N/A   Clear
9:25 AM 70.0 °F 57.4 °F 64% 30.16 in 10.0 mi WNW 6.9 mph - N/A   Clear
9:45 AM 71.6 °F 54.5 °F 55% 30.16 in 10.0 mi WNW 5.8 mph - N/A   Clear
10:05 AM 72.1 °F 54.0 °F 53% 30.17 in 10.0 mi WNW 10.4 mph 18.4 mph N/A   Clear
10:25 AM 73.4 °F 54.1 °F 51% 30.17 in 10.0 mi West 10.4 mph - N/A   Clear
10:45 AM 74.1 °F 56.3 °F 54% 30.17 in 10.0 mi West 3.5 mph - N/A   Clear
11:05 AM 74.1 °F 57.2 °F 55% 30.17 in 10.0 mi NW 3.5 mph - N/A   Clear
11:25 AM 74.5 °F 56.3 °F 53% 30.17 in 10.0 mi NW 6.9 mph - N/A   Clear
11:45 AM 75.0 °F 55.0 °F 50% 30.17 in 10.0 mi NW 6.9 mph - N/A   Clear
12:05 PM 75.2 °F 54.9 °F 49% 30.17 in 10.0 mi NNW 6.9 mph - N/A   Clear
12:25 PM 76.3 °F 54.0 °F 46% 30.16 in 10.0 mi Calm Calm - N/A   Clear
12:45 PM 76.6 °F 55.4 °F 48% 30.16 in 10.0 mi NNW 6.9 mph - N/A   Clear
1:05 PM 76.6 °F 55.6 °F 48% 30.15 in 10.0 mi NNW 6.9 mph - N/A   Scattered Clouds
1:25 PM 77.4 °F 55.9 °F 47% 30.14 in 10.0 mi NNE 3.5 mph - N/A   Mostly Cloudy
1:45 PM 77.7 °F 55.0 °F 45% 30.14 in 10.0 mi SSW 5.8 mph - N/A   Unknown
2:05 PM 75.0 °F 58.8 °F 57% 30.13 in 10.0 mi Calm Calm - N/A   Mostly Cloudy
2:25 PM 77.0 °F 60.8 °F 57% 30.13 in 10.0 mi SE 5.8 mph - N/A   Scattered Clouds
2:45 PM 75.6 °F 61.2 °F 61% 30.13 in 10.0 mi SSE 4.6 mph - N/A   Clear
3:05 PM 73.8 °F 59.0 °F 60% 30.13 in 10.0 mi South 6.9 mph - N/A   Mostly Cloudy
3:25 PM 70.0 °F 59.0 °F 68% 30.12 in 10.0 mi SSE 5.8 mph - N/A   Mostly Cloudy
3:45 PM 72.1 °F 58.1 °F 61% 30.12 in 10.0 mi ESE 8.1 mph - N/A   Scattered Clouds
4:05 PM 72.9 °F 56.8 °F 57% 30.10 in 10.0 mi SE 5.8 mph - N/A Thunderstorm Scattered Clouds
4:25 PM 71.2 °F 57.2 °F 61% 30.11 in 10.0 mi South 3.5 mph - N/A   Mostly Cloudy
4:45 PM 69.4 °F 60.1 °F 72% 30.12 in 10.0 mi SSW 3.5 mph - N/A Rain Rain
5:05 PM 68.9 °F 62.6 °F 80% 30.11 in 10.0 mi Calm Calm - N/A Rain Light Rain
5:25 PM 71.4 °F 62.4 °F 73% 30.10 in 10.0 mi Calm Calm - N/A   Mostly Cloudy
5:45 PM 72.3 °F 62.6 °F 71% 30.10 in 10.0 mi Calm Calm - N/A   Mostly Cloudy
6:05 PM 72.1 °F 62.8 °F 72% 30.10 in 10.0 mi Calm Calm - N/A   Scattered Clouds
6:25 PM 72.3 °F 63.1 °F 73% 30.10 in 10.0 mi Calm Calm - N/A   Scattered Clouds
6:45 PM 73.4 °F 62.2 °F 68% 30.09 in 10.0 mi SSE 3.5 mph - N/A   Scattered Clouds
7:05 PM 72.5 °F 62.2 °F 70% 30.10 in 10.0 mi SSE 3.5 mph - N/A   Clear
7:25 PM 71.1 °F 61.5 °F 72% 30.10 in 10.0 mi Calm Calm - N/A   Clear
7:45 PM 70.0 °F 61.7 °F 75% 30.10 in 10.0 mi Calm Calm - N/A   Clear
8:05 PM 69.8 °F 61.7 °F 75% 30.12 in 10.0 mi Calm Calm - N/A   Clear
8:25 PM 68.5 °F 61.7 °F 79% 30.12 in 10.0 mi Calm Calm - N/A   Clear
8:45 PM 68.0 °F 61.7 °F 80% 30.12 in 10.0 mi Calm Calm - N/A   Clear
9:05 PM 68.0 °F 61.2 °F 79% 30.13 in 10.0 mi Calm Calm - N/A   Mostly Cloudy
9:25 PM 68.0 °F 60.6 °F 77% 30.13 in 10.0 mi Calm Calm - N/A   Overcast
9:45 PM 67.3 °F 60.8 °F 80% 30.13 in 10.0 mi Calm Calm - N/A   Scattered Clouds
10:05 PM 68.4 °F 60.8 °F 77% 30.14 in 10.0 mi Calm Calm - N/A   Mostly Cloudy
10:25 PM 67.5 °F 60.8 °F 79% 30.14 in 10.0 mi Calm Calm - N/A   Mostly Cloudy
10:45 PM 66.2 °F 61.0 °F 83% 30.15 in 10.0 mi Calm Calm - N/A   Mostly Cloudy
11:05 PM 64.9 °F 60.8 °F 86% 30.15 in 10.0 mi Calm Calm - N/A   Scattered Clouds
11:25 PM 64.8 °F 60.8 °F 87% 30.15 in 10.0 mi Calm Calm - N/A   Clear
11:45 PM 63.1 °F 60.8 °F 92% 30.14 in 10.0 mi Calm Calm - N/A   Clear